Regional Weather Roundup
Issued by NWS

Home | Current Version | Previous Version | Text Only | Print | Product List | Glossary On
Versions: 1 2 3 4 5 6 7 8 9 10 11 12 13 14 15 16 17 18 19 20 21 22 23 24 25 26 27 28 29 30 31 32 33 34 35 36 37 38 39 40 41 42 43 44 45 46 47 48 49 50
000
ASCA42 TJSJ 231211
RWRPR
PUERTO RICO/U.S. VIRGIN ISLANDS HOURLY WEATHER ROUNDUP
NATIONAL WEATHER SERVICE SAN JUAN PR
800 AM AST WED APR 23 2014

PRZ001-004-231300-
PUERTO RICO

CITY           SKY/WX    TMP DP  RH WIND       PRES   REMARKS
SAN JUAN LMM   MOSUNNY   82  72  69 SE5       29.97R
PONCE          PTSUNNY   82  72  69 E6        29.95
MAYAGUEZ       MOSUNNY   77  68  73 S7        29.97R
AGUADILLA      SUNNY     81  66  61 CALM      29.99R
$$

PRZ006-007-231300-
U.S. VIRGIN ISLANDS

CITY           SKY/WX    TMP DP  RH WIND       PRES   REMARKS
CHARLOTTE AMA  PTSUNNY   81  75  83 S8        29.98R
CHRISTIANSTED  MOSUNNY   82  73  74 SE8       30.00R
$$

HOURLY WEATHER ROUNDUP FOR THE NEWS MEDIA

CITY           SKY/WX    TMP DP  RH WIND       PRES   REMARKS
MIAMI          MOSUNNY   68  62  81 W6        29.95R
ORLANDO        SUNNY     66  62  87 W5        29.94R
NEW YORK       PTSUNNY   51  32  48 W20G28    29.59R
NEWARK         PTSUNNY   51  32  48 NW18G31   29.59R
CHICAGO        MOSUNNY   36  27  69 NE6       30.16R WCI  31
HARTFORD       RAIN      48  47  96 SW10      29.48R FOG
BOSTON         PTSUNNY   57  48  72 NW9       29.44F
DALLAS         PTCLDY    63  57  81 SE7       29.92R
PHILADELPHIA   MOSUNNY   51  31  46 NW23G33   29.69R



USA.gov is the U.S. government's official web portal to all federal, state and local government web resources and services.